Regional Weather Roundup
Issued by NWS Memphis, TN

Home | Current Version | Previous Version | Text Only | Print | Product List | Glossary On
Versions: 1 2 3 4 5 6 7 8 9 10 11 12 13 14 15 16 17 18 19 20 21 22 23 24 25 26 27 28 29 30 31 32 33 34 35 36 37 38 39 40 41 42 43 44 45 46 47 48 49 50
000
ASUS44 KMEG 170010
RWRMEG
MEMPHIS CWA HOURLY WEATHER ROUNDUP
NATIONAL WEATHER SERVICE MEMPHIS TN
600 PM CST SAT DEC 16 2017

...WEST TENNESSEE...

CITY           SKY/WX    TMP DP  RH WIND       PRES   REMARKS
MEMPHIS INTL   PTCLDY    46  30  53 S7        30.16R
6HR MIN TEMP:  46; 6HR MAX TEMP:  55;

NWS MEMPHIS      N/A     50 N/A N/A MISG        N/A
JACKSON        PTCLDY    44  30  57 S3        30.18R
6HR MIN TEMP:  44; 6HR MAX TEMP:  55;

COVINGTON      PTCLDY    46  30  53 S3        30.16S
SOMERVILLE     CLEAR     48  28  46 CALM      30.15R
BOLIVAR        CLEAR     46  30  53 SE3       30.16S
LEXINGTON      CLEAR     46  30  53 S3        30.18R
SELMER         CLEAR     46  30  53 S6        30.18R
SAVANNAH       CLEAR     43  32  65 CALM      30.19R
DYERSBURG      PTCLDY    48  30  49 CALM      30.16R
6HR MIN TEMP:  48; 6HR MAX TEMP:  55;

UNION CITY     CLEAR     46  30  53 S9        30.14S
PARIS          PTCLDY    43  28  56 S8        30.14R
HUNTINGDON     CLEAR     46  30  53 S7        30.15R


...EASTERN ARKANSAS...

CITY           SKY/WX    TMP DP  RH WIND       PRES   REMARKS
JONESBORO      PTCLDY    46  32  58 S7        30.14R
6HR MIN TEMP:  46; 6HR MAX TEMP:  54;

WEST MEMPHIS   PTCLDY    45  33  63 S9        30.15R
6HR MIN TEMP:  45; 6HR MAX TEMP:  54;

BATESVILLE     PTCLDY    49  29  46 S6        30.12R
6HR MIN TEMP:  49; 6HR MAX TEMP:  56;

NEWPORT        PTCLDY    43  33  68 S8        30.13S
6HR MIN TEMP:  43; 6HR MAX TEMP:  55;

WALNUT RIDGE   CLOUDY    47  30  51 S10       30.12R
6HR MIN TEMP:  47; 6HR MAX TEMP:  56;

BLYTHEVILLE    CLOUDY    48  33  56 S10       30.15S
6HR MIN TEMP:  46; 6HR MAX TEMP:  54;

SEARCY         PTCLDY    48  32  53 S7        30.14R
6HR MIN TEMP:  45; 6HR MAX TEMP:  57;

STUTTGART      PTCLDY    50  34  54 S7        30.15R
6HR MIN TEMP:  50; 6HR MAX TEMP:  56;

PINE BLUFF     CLOUDY    48  33  56 S7        30.15R
6HR MIN TEMP:  48; 6HR MAX TEMP:  57;

MONTICELLO     CLOUDY    51  34  52 SE3       30.15R
6HR MIN TEMP:  51; 6HR MAX TEMP:  58;



...NORTH MISSISSIPPI...

CITY           SKY/WX    TMP DP  RH WIND       PRES   REMARKS
TUPELO         CLOUDY    46  29  51 SE8       30.20S
6HR MIN TEMP:  45; 6HR MAX TEMP:  53;

OXFORD         CLOUDY    43  30  61 SE5       30.19R
BATESVILLE     PTCLDY    43  30  60 CALM      30.19R
6HR MIN TEMP:  43; 6HR MAX TEMP:  56;

OLIVE BRANCH   PTCLDY    45  27  49 CALM      30.16R
TUNICA           N/A    N/A N/A N/A S7        30.19R
CLARKSDALE     CLEAR     46  34  61 SE7       30.17F
CORINTH        CLOUDY    45  28  53 SE5       30.18F
GREENWOOD      PTCLDY    48  31  51 SE5       30.18S
6HR MIN TEMP:  48; 6HR MAX TEMP:  57;

COLUMBUS       PTCLDY    39  32  74 CALM      30.21S
6HR MIN TEMP:  39; 6HR MAX TEMP:  52;

STARKVILLE     CLOUDY    43  32  65 SE3       30.22S
GOLDEN TRIANGL CLOUDY    46  29  51 SE7       30.22S
6HR MIN TEMP:  46; 6HR MAX TEMP:  52;



...SOUTHEAST MISSOURI...

CITY           SKY/WX    TMP DP  RH WIND       PRES   REMARKS
KENNETT        CLOUDY    46  32  57 S7        30.12S
MALDEN         CLOUDY    46  32  57 S9        30.14R
WEST PLAINS    PTCLDY    48  26  42 S9        30.07R
6HR MIN TEMP:  48; 6HR MAX TEMP:  57;

POPLAR BLUFF   CLOUDY    45  32  60 S8        30.11R
6HR MIN TEMP:  45; 6HR MAX TEMP:  54;

CAPE GIRARDEAU CLOUDY    46  30  53 S10       30.10S
6HR MIN TEMP:  45; 6HR MAX TEMP:  53;



...NORTHWEST ALABAMA...

CITY           SKY/WX    TMP DP  RH WIND       PRES   REMARKS
MUSCLE SHOALS  CLEAR     44  27  51 S5        30.21F
6HR MIN TEMP:  44; 6HR MAX TEMP:  53;



...MIDDLE TENNESSEE...

CITY           SKY/WX    TMP DP  RH WIND       PRES   REMARKS
NASHVILLE      CLOUDY    44  29  55 S6        30.20R
6HR MIN TEMP:  44; 6HR MAX TEMP:  53;

CLARKSVILLE    CLOUDY    45  26  47 S6        30.16S
6HR MIN TEMP:  45; 6HR MAX TEMP:  53;

COLUMBIA       CLEAR     46  28  49 CALM      30.18R


...WESTERN KENTUCKY...

CITY           SKY/WX    TMP DP  RH WIND       PRES   REMARKS
PADUCAH        CLOUDY    47  29  49 VRB3      30.13R
6HR MIN TEMP:  46; 6HR MAX TEMP:  54;

FORT CAMPBELL  PTCLDY    47  27  46 S6        30.15S
6HR MIN TEMP:  47; 6HR MAX TEMP:  53;



...CENTRAL ARKANSAS...

CITY           SKY/WX    TMP DP  RH WIND       PRES   REMARKS
LITTLE ROCK    CLOUDY    50  30  46 S6        30.13R
6HR MIN TEMP:  49; 6HR MAX TEMP:  56;



SKY/WX REPORTED AS FAIR MEANS FEW OR NO CLOUDS BELOW
12 THOUSAND FEET.





USA.gov is the U.S. government's official web portal to all federal, state and local government web resources and services.